{"data":{"norad_id":67172,"epoch":"2026-05-24T14:47:58.115904Z","epoch_age_seconds":105190,"freshness":"FRESH","line1":"1 67172U 25303K   26144.61664486  .00024968  00000+0  91413-3 0  9993","line2":"2 67172  42.9988 242.2305 0001304 258.4957 101.5748 15.27566741 24344","mean_motion":15.27566741,"eccentricity":0.0001304,"inclination_deg":42.9988,"raan_deg":242.2305,"arg_perigee_deg":258.4957,"mean_anomaly_deg":101.5748,"bstar":0.00091413,"rev_number":2434,"period_min":94.267566931794,"perigee_km":482.1940946986,"apogee_km":483.98350238686,"semimajor_km":6861.2257985427,"source":"CELESTRAK","updated_at":"2026-05-25T13:38:21.481383Z"}}